User: anonymous   Login
Location: Nitra
(0.0000°N, 18.0833°E)
Time: 06:00:59
(UTC+02:00)
Language:

Okean-O - Orbit

View from above orbital plane
View from above orbital plane
View from above satellite
View from above satellite

Ground track
Ground track

The orbit data is extracted from the following two-line orbital elements,

1 25860U 99039A   21107.54901705  .00000050  00000-0  14732-4 0  9999
2 25860  98.1894 137.4452 0001252  67.8236 292.3106 14.76725308170396
Epoch (UTC): 17 April 2021 13:10:35
Eccentricity: 0.0001252
inclination: 98.1894°
perigee height: 639 km
apogee height: 640 km
right ascension of ascending node: 137.4452°
argument of perigee: 67.8236°
revolutions per day: 14.76725308
mean anomaly at epoch: 292.3106°
orbit number at epoch: 17039

The dashed part of the orbit path shows where the satellite is in the earth's shadow,  

DLR